Location: Unspecified
(51.0950°N, 12.9690°E)
Time: 22:55:56
(UTC+00:00)

CZ-4B R/B - Pass Details

Date: 28 October 2021
Orbit: 808 x 882 km, 99.1° (Epoch: 01 December)

Event Time Altitude Azimuth Distance (km) Brightness Sun altitude
Rises 17:33:02 0° 178° (S) 3,470 6.4 -16.8°
Reaches altitude 10° 17:35:30 10° 183° (S) 2,536 5.7 -17.2°
Maximum altitude 17:41:00 52° 260° (W) 1,086 4.1 -18.0°
Drops below altitude 10° 17:46:31 10° 336° (NNW) 2,537 6.0 -18.9°
Sets 17:48:59 0° 342° (NNW) 3,471 6.7 -19.3°
